Tracking 20041 objects as of 22-Nov-2019
Live streaming from Space Station
objects crossing your sky now

COSMOS 858

Track COSMOS 858 now!
10-day predictions
COSMOS 858 is classified as:


NORAD ID: 9443
Int'l Code: 1976-098A
Perigee: 774.5 km
Apogee: 795.7 km
Inclination: 74.1 °
Period: 100.4 minutes
Semi major axis: 7156 km
RCS: 2.2223 m2 (large)
Launch date: September 29, 1976
Source: Commonwealth of Independent States (former USSR) (CIS)
Launch site: PLESETSK MISSILE AND SPACE COMPLEX (PKMTR)
aabbcc
Your satellite tracking list
Your tracking list is empty




NASA's NSSDC Master Catalog

Two Line Element Set (TLE):
1  9443U 76098A   19326.28056372  .00000002  00000-0  10126-4 0  9990
2  9443  74.0501 227.5252 0014787 221.7215 138.2811 14.34137880255051
Source of the keplerian elements: AFSPC